#timestamp,LO_Frequency,Hit,StdDev 
1620115215.5,286046995.0,P
1620115235.4,286046995.7,Y
1620115255.2,286047000.7,P
1620115275.1,286047000.8,N
1620115276.0,286047000.8,N
1620115295.8,286046999.0,N
1620115315.6,286046998.6,N
1620115335.5,286046998.4,N
1620115355.3,286046998.4,N
1620115375.1,286046998.4,N
1620115395.9,286046998.9,N
1620115415.7,286046998.1,N
1620115435.6,286046998.3,N
1620115455.4,286046998.4,N
1620115475.2,286046999.4,N
1620115495.1,286046999.5,N
1620115496.0,286046999.5,N
1620115515.8,286046998.4,N
1620115535.6,286046999.4,N
1620115555.5,286046999.2,N
1620115575.3,286046996.5,Y
1620115595.2,286046998.6,P
1620115615.9,286046998.9,P
1620115635.7,286046999.4,P
1620115655.6,286046999.4,N
1620115675.4,286046996.5,Y
1620115695.3,286046999.5,P
1620115715.1,286047001.1,P
1620115716.0,286047001.1,N
1620115735.8,286047002.7,N
1620115755.7,286046999.7,N
1620115775.5,286047003.0,N
1620115795.3,286047002.0,N
1620115815.2,286047000.6,N
1620115835.0,286047001.2,N
1620115835.9,286047001.2,N
1620115855.8,286046998.1,N
1620115875.6,286047001.1,N
1620115895.4,286046999.2,N
1620115915.3,286046997.2,N
1620115935.1,286046997.7,N
1620115955.9,286046997.5,N
1620115975.7,286046997.1,N
1620115995.5,286046998.0,N
1620116015.4,286046995.2,N
1620116035.2,286046993.3,Y
1620116055.0,286046993.4,P
1620116055.9,286046993.4,N
1620116075.8,286046993.9,N
1620116095.6,286046993.3,N
1620116115.5,286046994.0,N
1620116135.3,286046994.8,N
1620116155.1,286046992.9,Y
1620116175.9,286046999.0,P
1620116195.7,286046999.0,N
1620116215.5,286046997.8,N
1620116235.4,286046999.5,N
1620116255.2,286046995.6,N
1620116275.1,286046998.1,N
1620116276.0,286046998.1,N
1620116295.8,286046996.9,N
1620116315.6,286046996.7,N
1620116335.5,286046997.6,N
1620116355.3,286046995.1,Y
1620116375.2,286046999.6,P
1620116395.9,286046995.0,P
1620116415.7,286046996.1,N
1620116435.6,286046996.1,N
1620116455.4,286046995.8,N
1620116475.2,286046997.3,N
1620116495.1,286046996.2,N
1620116496.0,286046996.2,N
1620116515.8,286046993.4,Y
1620116535.7,286046996.8,P
1620116555.5,286046999.3,P
1620116575.3,286046997.6,N
1620116595.2,286046996.3,Y
1620116615.0,286046999.4,P
1620116615.9,286046999.4,N
1620116635.8,286046997.9,N
1620116655.6,286046997.4,Y
1620116675.4,286047001.1,P
1620116695.3,286047004.1,P
1620116715.1,286047001.0,N
1620116735.8,286046998.4,N
1620116755.7,286046999.0,N
1620116775.5,286046999.0,N
1620116795.4,286046999.3,N
1620116815.2,286046998.5,N
1620116835.0,286047000.1,N
1620116835.9,286047000.1,N
1620116855.8,286047000.9,N
1620116875.6,286046999.8,N
1620116895.4,286047002.1,N
1620116915.3,286047002.6,N
1620116935.1,286047002.2,N
1620116955.9,286047000.7,N
1620116975.7,286046996.9,N
1620116995.5,286046997.3,N
1620117015.4,286046996.9,N
1620117035.2,286046996.8,N
1620117055.0,286046997.8,N
1620117055.9,286046997.8,N
1620117075.8,286046997.7,N
1620117095.6,286046995.0,N
1620117115.5,286046996.6,N
1620117135.3,286046995.2,N
1620117155.1,286046995.2,N
1620117175.9,286046996.0,N
1620117195.7,286046994.2,N
1620117215.6,286046994.1,N
1620117235.4,286046994.2,N
1620117255.2,286046992.4,N
1620117275.1,286046990.4,Y
1620117276.0,286046990.4,P
1620117295.8,286046993.1,N
1620117315.6,286046992.7,N
1620117335.5,286046992.9,N
1620117355.3,286046989.0,Y
1620117375.2,286046995.6,P
1620117395.9,286046994.9,P
1620117415.7,286046993.4,P
1620117435.6,286046993.8,Y
1620117455.4,286047001.2,P
1620117475.3,286046998.6,N
1620117495.1,286047000.4,N
1620117496.0,286047000.4,N
1620117515.8,286046999.3,N
1620117535.7,286046999.0,N
1620117555.5,286046996.9,N
1620117575.3,286046995.3,N
1620117595.2,286046997.9,N
1620117615.0,286046995.1,N
1620117615.9,286046995.1,N
1620117635.8,286046995.5,N
1620117655.6,286046995.7,N
1620117675.4,286046993.6,N
1620117695.3,286046993.4,N
1620117715.1,286046993.6,N
1620117735.9,286046996.2,N
1620117755.7,286046994.5,N
1620117775.5,286046993.0,N
1620117795.4,286046993.0,N
1620117815.2,286046990.5,Y
1620117835.0,286046995.1,P
1620117836.0,286046995.1,P
1620117855.8,286046993.8,P
1620117875.6,286046993.7,Y
1620117895.5,286047000.9,P
1620117915.3,286047001.2,N
1620117935.1,286046999.6,N
1620117955.9,286046997.0,N
1620117975.7,286046996.8,N
1620117995.6,286046996.8,N
1620118015.4,286046997.7,N
1620118035.2,286046997.8,N
1620118055.1,286046997.9,N
1620118056.0,286046997.9,N
1620118075.8,286046995.9,N
1620118095.7,286046994.6,Y
1620118115.5,286046996.3,P
1620118135.3,286046993.5,P
1620118155.2,286046994.2,P
1620118175.0,286046993.8,Y
1620118175.9,286046993.8,P
1620118195.8,286046999.2,N
1620118215.6,286046998.7,N
1620118235.4,286046997.2,N
1620118255.3,286046997.4,N
1620118275.1,286046997.9,N
1620118295.8,286046998.0,N
1620118315.7,286046995.1,N
1620118335.5,286046995.1,N
1620118355.4,286046995.8,N
1620118375.2,286046995.7,N
1620118395.0,286046995.8,N
1620118395.9,286046995.8,N
1620118415.8,286046995.7,N
1620118435.6,286046995.5,Y
1620118455.5,286047011.9,P
1620118475.3,286046996.7,N
1620118495.1,286046995.0,N
1620118515.9,286046995.2,N
1620118535.7,286046995.5,N
1620118555.5,286046993.3,N
1620118575.4,286046996.0,N
1620118595.2,286046996.1,N
1620118615.1,286046996.1,N
1620118616.0,286046996.1,N
1620118635.8,286046994.0,N
1620118655.6,286046993.5,N
1620118675.5,286046996.0,N
1620118695.3,286046994.0,N
1620118715.1,286046994.4,N
1620118735.9,286046994.3,N
1620118755.7,286046991.7,N
1620118775.6,286046994.8,N
1620118795.4,286046994.8,N
